Location: Unspecified
(0.0000°N, 0.0000°E)
Time: 05:03:18
(UTC+00:00)

Explorer 7 - Pass Details

Date: 05 October 2020
Orbit: 484 x 678 km, 50.3° (Epoch: 28 October)

Event Time Altitude Azimuth Distance (km) Brightness Sun altitude
Rises 08:10:24 0° 302° (WNW) 2,997 10.1 35.4°
Reaches altitude 10° 08:13:06 10° 290° (WNW) 2,067 9.4 36.0°
Maximum altitude 08:17:03 26° 234° (SW) 1,276 8.6 37.0°
Drops below altitude 10° 08:20:52 10° 177° (S) 1,992 9.9 38.0°
Sets 08:23:26 0° 164° (SSE) 2,864 10.7 38.6°
